STARLINK-30951, 58439

Orbit data source: Space-Track

STARLINK-30951, 58439 is a payload satellite owned by SpaceX/Seattle (US) in LEO that was launched on Tue, 28 Nov 2023 UTC via an FALCON 9 launch vehicle from the Air Force Eastern Test Range (AFETR). Payload-class satellites include a variety of spacecraft equipped with specific instruments for various scientific and technological missions. These include communications satellites like Starlink; space stations such as the ISS; scientific satellites like the Hubble; Earth observation satellites from companies like Planet Labs, Umbra, and HawkEye 360; GPS; miniature CubeSats for education and research; and military/defense satellites.

Loading next visibility...
Identifier
58439, 2023-183C
Orbit
LEO
Country
Flag of USUS
Related business
Manufacturer
SpaceX/Seattle
Mission
Operational Commercial Communications
Bus & Motor
STARLINK V2M, Unknown motor
Mass
730 kg wet, ~700 kg dry
Launch date (UTC)
2023-11-28 (3 years ago)
Launch vehicle
FALCON 9
Launch site
Air Force Eastern Test Range (AFETR)
Object type
Payload
Rocket body
Debris
Shape & HBR
Box + 2 Pan, 17.7 m
Radar Cross Section
33.884 m², Large (>1 m²)

Expand to show TLE details & history
Last TLE update: 2 days ago

TLE from 2 days ago
0 STARLINK-30951
1 58439U 23183C   26171.02523021  .00000647  00000-0  33047-4 0  9996
2 58439  43.0034 183.8231 0001625 277.7055  82.3612 15.27577433142382
Epoch: 2026-06-20T00:36Z
TLE epoch observation values (Epoch: 2026-06-20T00:36:19.890Z)
Latitude
-0.00001°
Longitude
-93.50557°
Altitude
482.685 km
Speed
7.626 km/s
True Right ascension
12h 15m 17s
True Declination
0° 00' 00"
Sunlit
Object was in daylight at epoch
Visualization orbit readout
Latitude
Unknown
Longitude
Unknown
Altitude
Unknown
Speed
Unknown
Apparent Right ascension
Unknown
Apparent Declination
Unknown
Sunlit
N/A
Visualization observer readout
Local Sidereal Time
21:32:50
Azimuth
Unknown
Elevation
Unknown
Doppler factor
Unknown
Orbital elements
Apogee altitude
486.117 km
Perigee altitude
483.886 km
Semi-major axis
6,863.138 km
Eccentricity
0.00016
Inclination
43.0034°
RAAN
183.8231°
Arg. of periapsis
277.7055°
True anomaly
82.37966°
Mean anomaly
82.3612°
Eccentric anomaly
82.37043°
Mean motion
3.81732 °/min
Orbital period
94.31 mins
BSTAR
0.000033047
Loading maneuver chart data...
Computing Atmospheric mass density...
Loading historical data...
Loading historical data...
Loading historical data...
Loading historical data...
Loading historical data...
Loading historical data...
Loading historical data...

Documentation

Showing up to 5 results
|